| time (UTC) | temp C | wind direction | speed KPH | gust KPH | rain 1hr cm | rain 24hr cm | rain mn cm | humidity % | barometer mb |
| 20260507162706 | 11 | 269 | 4.8 | 14.5 | 0.00 | 0.28 | 0.15 | 91 | 1011.2 |
| 20260507162204 | 11 | 270 | 4.8 | 12.9 | 0.00 | 0.28 | 0.15 | 91 | 1011.2 |
| 20260507161706 | 11 | 275 | 6.4 | 12.9 | 0.00 | 0.28 | 0.15 | 90 | 1011.2 |
| 20260507160938 | 11 | 271 | 6.4 | 12.9 | 0.00 | 0.28 | 0.15 | 90 | 1011.2 |
| 20260507160703 | 11 | 274 | 4.8 | 11.3 | 0.00 | 0.28 | 0.15 | 90 | 1011.2 |
| 20260507155938 | 11 | 265 | 6.4 | 12.9 | 0.00 | 0.28 | 0.15 | 89 | 1011.2 |
| 20260507155438 | 11 | 268 | 6.4 | 14.5 | 0.00 | 0.28 | 0.15 | 89 | 1011.2 |
| 20260507154938 | 11 | 250 | 8.0 | 16.1 | 0.00 | 0.28 | 0.15 | 89 | 1011.1 |
| 20260507154438 | 11 | 239 | 8.0 | 16.1 | 0.00 | 0.28 | 0.15 | 89 | 1011.0 |
| 20260507153938 | 11 | 248 | 8.0 | 19.3 | 0.00 | 0.28 | 0.15 | 89 | 1010.9 |
| 20260507153437 | 11 | 282 | 8.0 | 19.3 | 0.03 | 0.28 | 0.15 | 89 | 1010.8 |
| 20260507152937 | 11 | 247 | 8.0 | 16.1 | 0.03 | 0.28 | 0.15 | 88 | 1010.8 |
| 20260507152437 | 11 | 250 | 6.4 | 14.5 | 0.03 | 0.28 | 0.15 | 88 | 1010.8 |
| 20260507151937 | 11 | 260 | 6.4 | 12.9 | 0.03 | 0.28 | 0.15 | 88 | 1010.8 |
| 20260507151435 | 11 | 257 | 8.0 | 17.7 | 0.03 | 0.28 | 0.15 | 88 | 1010.8 |
| 20260507150936 | 11 | 250 | 8.0 | 17.7 | 0.03 | 0.28 | 0.15 | 88 | 1010.8 |
| 20260507150436 | 11 | 263 | 8.0 | 16.1 | 0.05 | 0.28 | 0.15 | 88 | 1010.7 |
| 20260507145936 | 11 | 242 | 8.0 | 17.7 | 0.05 | 0.28 | 0.15 | 88 | 1010.7 |
| 20260507145436 | 11 | 260 | 8.0 | 17.7 | 0.05 | 0.28 | 0.15 | 88 | 1010.5 |
| 20260507145201 | 11 | 262 | 6.4 | 17.7 | 0.05 | 0.28 | 0.15 | 88 | 1010.7 |
| 20260507144437 | 11 | 275 | 6.4 | 12.9 | 0.05 | 0.28 | 0.15 | 87 | 1010.7 |
| 20260507143936 | 11 | 286 | 8.0 | 17.7 | 0.05 | 0.28 | 0.15 | 87 | 1010.7 |
| 20260507143436 | 12 | 269 | 8.0 | 17.7 | 0.05 | 0.25 | 0.15 | 86 | 1010.5 |
| 20260507142932 | 12 | 261 | 8.0 | 14.5 | 0.05 | 0.25 | 0.15 | 85 | 1010.7 |
| 20260507142431 | 12 | 252 | 8.0 | 14.5 | 0.05 | 0.25 | 0.15 | 85 | 1010.5 |
| 20260507141431 | 12 | 261 | 9.7 | 29.0 | 0.05 | 0.25 | 0.15 | 81 | 1010.5 |
| 20260507140931 | 13 | 267 | 11.3 | 29.0 | 0.05 | 0.25 | 0.15 | 77 | 1010.5 |
| 20260507135929 | 15 | 321 | 6.4 | 22.5 | 0.00 | 0.23 | 0.10 | 70 | 1010.4 |
| 20260507135430 | 15 | 254 | 4.8 | 17.7 | 0.00 | 0.23 | 0.10 | 68 | 1010.2 |
| 20260507134929 | 16 | 190 | 6.4 | 17.7 | 0.00 | 0.23 | 0.10 | 67 | 1010.1 |
| 20260507134429 | 16 | 279 | 6.4 | 16.1 | 0.00 | 0.23 | 0.10 | 65 | 1010.0 |
| 20260507133928 | 16 | 287 | 6.4 | 20.9 | 0.00 | 0.23 | 0.10 | 64 | 1010.0 |
| 20260507133430 | 16 | 281 | 6.4 | 20.9 | 0.00 | 0.23 | 0.10 | 66 | 1010.0 |
| 20260507132929 | 16 | 265 | 6.4 | 19.3 | 0.00 | 0.23 | 0.10 | 67 | 1009.9 |
| 20260507132430 | 16 | 186 | 6.4 | 24.1 | 0.00 | 0.23 | 0.10 | 66 | 1009.9 |
| 20260507131929 | 16 | 165 | 6.4 | 24.1 | 0.00 | 0.23 | 0.10 | 68 | 1009.8 |
| 20260507131653 | 16 | 171 | 8.0 | 22.5 | 0.00 | 0.23 | 0.10 | 68 | 1009.8 |
| 20260507130930 | 16 | 182 | 11.3 | 32.2 | 0.00 | 0.23 | 0.10 | 67 | 1009.8 |
| 20260507130428 | 16 | 255 | 11.3 | 32.2 | 0.00 | 0.23 | 0.10 | 65 | 1009.8 |
| 20260507125930 | 16 | 270 | 9.7 | 20.9 | 0.00 | 0.23 | 0.10 | 63 | 1009.7 |
| 20260507125428 | 16 | 207 | 9.7 | 20.9 | 0.00 | 0.23 | 0.10 | 64 | 1009.7 |
| 20260507124931 | 16 | 261 | 11.3 | 22.5 | 0.00 | 0.23 | 0.10 | 64 | 1009.7 |
| 20260507124428 | 16 | 196 | 9.7 | 24.1 | 0.00 | 0.23 | 0.10 | 63 | 1009.7 |
| 20260507123929 | 16 | 267 | 8.0 | 24.1 | 0.00 | 0.23 | 0.10 | 63 | 1009.7 |
| 20260507123430 | 16 | 162 | 6.4 | 16.1 | 0.00 | 0.23 | 0.10 | 65 | 1009.6 |
| 20260507122929 | 16 | 267 | 8.0 | 22.5 | 0.00 | 0.23 | 0.10 | 65 | 1009.6 |
| 20260507122429 | 16 | 185 | 8.0 | 22.5 | 0.00 | 0.23 | 0.10 | 66 | 1009.6 |
| 20260507121930 | 16 | 273 | 8.0 | 19.3 | 0.00 | 0.23 | 0.10 | 65 | 1009.5 |
| 20260507121429 | 16 | 259 | 6.4 | 20.9 | 0.00 | 0.23 | 0.10 | 65 | 1009.5 |
| 20260507120929 | 16 | 216 | 6.4 | 20.9 | 0.00 | 0.23 | 0.10 | 64 | 1009.5 |
| 20260507120430 | 16 | 127 | 4.8 | 22.5 | 0.00 | 0.23 | 0.10 | 64 | 1009.5 |
| 20260507120155 | 16 | 163 | 3.2 | 22.5 | 0.00 | 0.23 | 0.10 | 66 | 1009.4 |
| 20260507115429 | 16 | 244 | 3.2 | 14.5 | 0.00 | 0.23 | 0.10 | 65 | 1009.4 |
| 20260507114930 | 16 | 292 | 4.8 | 14.5 | 0.00 | 0.23 | 0.10 | 65 | 1009.4 |
| 20260507114430 | 16 | 304 | 6.4 | 16.1 | 0.00 | 0.23 | 0.10 | 67 | 1009.3 |
| 20260507113929 | 16 | 193 | 6.4 | 16.1 | 0.00 | 0.23 | 0.10 | 66 | 1009.4 |
| 20260507113429 | 16 | 288 | 6.4 | 17.7 | 0.00 | 0.23 | 0.10 | 66 | 1009.4 |
| 20260507112928 | 16 | 183 | 6.4 | 17.7 | 0.00 | 0.23 | 0.10 | 64 | 1009.4 |
| 20260507112654 | 16 | 143 | 6.4 | 19.3 | 0.00 | 0.23 | 0.10 | 65 | 1009.3 |
| 20260507111930 | 16 | 295 | 4.8 | 19.3 | 0.00 | 0.23 | 0.10 | 67 | 1009.3 |
| 20260507111428 | 16 | 274 | 4.8 | 19.3 | 0.00 | 0.23 | 0.10 | 68 | 1009.3 |
| 20260507110930 | 16 | 160 | 4.8 | 14.5 | 0.00 | 0.23 | 0.10 | 68 | 1009.3 |
| 20260507110429 | 15 | 101 | 4.8 | 12.9 | 0.00 | 0.23 | 0.10 | 70 | 1009.3 |
| 20260507105929 | 15 | 171 | 4.8 | 16.1 | 0.00 | 0.23 | 0.10 | 68 | 1009.3 |
| 20260507105429 | 15 | 306 | 6.4 | 19.3 | 0.00 | 0.23 | 0.10 | 68 | 1009.2 |
| 20260507104923 | 15 | 144 | 4.8 | 19.3 | 0.00 | 0.23 | 0.10 | 67 | 1009.2 |
| 20260507103912 | 16 | 257 | 6.4 | 20.9 | 0.00 | 0.23 | 0.10 | 64 | 1009.2 |
| 20260507103407 | 16 | 202 | 8.0 | 24.1 | 0.00 | 0.23 | 0.10 | 67 | 1009.2 |
| 20260507102908 | 16 | 215 | 9.7 | 30.6 | 0.00 | 0.23 | 0.10 | 67 | 1009.2 |
| 20260507102407 | 16 | 281 | 8.0 | 30.6 | 0.00 | 0.23 | 0.10 | 66 | 1009.1 |
| 20260507101907 | 16 | 231 | 6.4 | 24.1 | 0.00 | 0.23 | 0.10 | 70 | 1009.1 |
| 20260507101628 | 16 | 147 | 6.4 | 17.7 | 0.00 | 0.23 | 0.10 | 68 | 1009.0 |
| 20260507100907 | 16 | 205 | 8.0 | 27.4 | 0.00 | 0.23 | 0.10 | 67 | 1009.0 |
| 20260507100407 | 15 | 267 | 8.0 | 27.4 | 0.00 | 0.23 | 0.10 | 68 | 1009.0 |
| 20260507095907 | 15 | 0 | 8.0 | 17.7 | 0.00 | 0.23 | 0.10 | 70 | 1009.0 |
| 20260507095634 | 15 | 275 | 8.0 | 29.0 | 0.00 | 0.23 | 0.10 | 70 | 1009.0 |
| 20260507094905 | 15 | 271 | 6.4 | 29.0 | 0.00 | 0.23 | 0.10 | 70 | 1009.0 |
| 20260507094628 | 15 | 273 | 6.4 | 16.1 | 0.00 | 0.23 | 0.10 | 71 | 1008.8 |
| 20260507093905 | 15 | 171 | 8.0 | 24.1 | 0.00 | 0.23 | 0.10 | 72 | 1008.8 |
| 20260507093405 | 15 | 287 | 6.4 | 24.1 | 0.00 | 0.23 | 0.10 | 72 | 1008.8 |
| 20260507092905 | 15 | 167 | 4.8 | 19.3 | 0.00 | 0.23 | 0.10 | 73 | 1008.7 |
| 20260507092405 | 14 | 126 | 4.8 | 19.3 | 0.00 | 0.23 | 0.10 | 76 | 1008.6 |
| 20260507091905 | 14 | 233 | 3.2 | 14.5 | 0.00 | 0.23 | 0.10 | 79 | 1008.7 |
| 20260507091402 | 13 | 314 | 4.8 | 14.5 | 0.00 | 0.23 | 0.10 | 79 | 1008.6 |
| 20260507090901 | 13 | 298 | 6.4 | 22.5 | 0.00 | 0.23 | 0.10 | 81 | 1008.6 |
| 20260507090617 | 13 | 277 | 8.0 | 22.5 | 0.00 | 0.23 | 0.10 | 81 | 1008.5 |
| 20260507090128 | 13 | 251 | 4.8 | 20.9 | 0.00 | 0.23 | 0.10 | 84 | 1008.5 |
| 20260507085357 | 12 | 226 | 3.2 | 12.9 | 0.00 | 0.23 | 0.10 | 86 | 1008.5 |
| 20260507084857 | 12 | 248 | 4.8 | 12.9 | 0.00 | 0.23 | 0.10 | 87 | 1008.5 |
| 20260507084357 | 12 | 273 | 6.4 | 14.5 | 0.00 | 0.23 | 0.10 | 87 | 1008.5 |
| 20260507083857 | 12 | 262 | 8.0 | 14.5 | 0.00 | 0.23 | 0.10 | 86 | 1008.6 |
| 20260507083356 | 13 | 246 | 8.0 | 14.5 | 0.00 | 0.23 | 0.10 | 84 | 1008.5 |
| 20260507082857 | 13 | 269 | 8.0 | 14.5 | 0.00 | 0.23 | 0.10 | 83 | 1008.4 |
| 20260507082357 | 13 | 292 | 8.0 | 19.3 | 0.00 | 0.23 | 0.10 | 80 | 1008.3 |
| 20260507081857 | 14 | 311 | 8.0 | 19.3 | 0.00 | 0.23 | 0.10 | 78 | 1008.2 |
| 20260507081357 | 14 | 204 | 9.7 | 19.3 | 0.00 | 0.23 | 0.10 | 76 | 1008.1 |
| 20260507080857 | 14 | 261 | 9.7 | 19.3 | 0.00 | 0.23 | 0.10 | 75 | 1008.0 |
| 20260507080357 | 15 | 188 | 6.4 | 16.1 | 0.00 | 0.23 | 0.10 | 76 | 1008.0 |
| 20260507075856 | 15 | 202 | 4.8 | 14.5 | 0.00 | 0.23 | 0.10 | 78 | 1007.9 |
| 20260507075357 | 15 | 267 | 6.4 | 17.7 | 0.00 | 0.23 | 0.10 | 77 | 1007.9 |
| 20260507074851 | 15 | 266 | 6.4 | 17.7 | 0.00 | 0.23 | 0.10 | 75 | 1007.9 |
| 20260507074349 | 15 | 261 | 4.8 | 16.1 | 0.00 | 0.23 | 0.10 | 78 | 1007.8 |
| 20260507073848 | 15 | 257 | 4.8 | 14.5 | 0.00 | 0.23 | 0.10 | 80 | 1007.8 |
| 20260507073612 | 14 | 237 | 4.8 | 19.3 | 0.00 | 0.23 | 0.10 | 80 | 1007.8 |
| 20260507072848 | 14 | 182 | 3.2 | 19.3 | 0.00 | 0.23 | 0.10 | 80 | 1007.7 |
| 20260507072349 | 13 | 269 | 4.8 | 11.3 | 0.00 | 0.23 | 0.10 | 81 | 1007.6 |
| 20260507071849 | 13 | 220 | 6.4 | 19.3 | 0.00 | 0.23 | 0.10 | 81 | 1007.6 |
| 20260507071349 | 13 | 169 | 8.0 | 19.3 | 0.00 | 0.23 | 0.10 | 80 | 1007.6 |
| 20260507070849 | 13 | 260 | 8.0 | 17.7 | 0.00 | 0.23 | 0.10 | 80 | 1007.4 |
| 20260507070349 | 13 | 184 | 8.0 | 20.9 | 0.00 | 0.23 | 0.10 | 80 | 1007.4 |
| 20260507065848 | 13 | 213 | 8.0 | 22.5 | 0.00 | 0.23 | 0.10 | 82 | 1007.6 |
| 20260507065348 | 13 | 248 | 9.7 | 22.5 | 0.00 | 0.23 | 0.10 | 83 | 1007.4 |
| 20260507065112 | 13 | 232 | 9.7 | 20.9 | 0.00 | 0.23 | 0.10 | 83 | 1007.6 |
| 20260507064349 | 13 | 273 | 4.8 | 19.3 | 0.00 | 0.23 | 0.10 | 84 | 1007.4 |
| 20260507063848 | 13 | 274 | 4.8 | 16.1 | 0.00 | 0.23 | 0.10 | 85 | 1007.4 |
| 20260507063349 | 13 | 257 | 8.0 | 16.1 | 0.00 | 0.23 | 0.10 | 84 | 1007.3 |
| 20260507063105 | 12 | 262 | 6.4 | 16.1 | 0.00 | 0.23 | 0.10 | 85 | 1007.3 |
| 20260507062348 | 12 | 263 | 8.0 | 19.3 | 0.00 | 0.23 | 0.10 | 85 | 1007.1 |
| 20260507061849 | 12 | 277 | 9.7 | 27.4 | 0.00 | 0.23 | 0.10 | 85 | 1007.1 |
| 20260507061349 | 12 | 209 | 9.7 | 27.4 | 0.00 | 0.23 | 0.10 | 86 | 1007.1 |
| 20260507060849 | 12 | 237 | 8.0 | 17.7 | 0.00 | 0.23 | 0.10 | 87 | 1007.0 |
| 20260507060349 | 12 | 236 | 6.4 | 16.1 | 0.00 | 0.23 | 0.10 | 88 | 1007.0 |
| 20260507060118 | 12 | 262 | 6.4 | 16.1 | 0.00 | 0.23 | 0.10 | 88 | 1006.9 |
| 20260507055348 | 12 | 288 | 4.8 | 16.1 | 0.00 | 0.23 | 0.10 | 88 | 1006.8 |
| 20260507054849 | 12 | 279 | 4.8 | 12.9 | 0.00 | 0.23 | 0.10 | 88 | 1006.8 |
| 20260507054348 | 12 | 275 | 4.8 | 12.9 | 0.00 | 0.23 | 0.10 | 89 | 1006.8 |
| 20260507054111 | 12 | 244 | 3.2 | 11.3 | 0.00 | 0.23 | 0.10 | 89 | 1006.7 |
| 20260507053618 | 12 | 218 | 3.2 | 8.0 | 0.00 | 0.23 | 0.10 | 89 | 1006.6 |
| 20260507052849 | 12 | 260 | 4.8 | 17.7 | 0.00 | 0.23 | 0.10 | 90 | 1006.6 |
| 20260507052347 | 11 | 254 | 8.0 | 17.7 | 0.00 | 0.23 | 0.10 | 90 | 1006.5 |
| 20260507051845 | 11 | 259 | 6.4 | 14.5 | 0.00 | 0.23 | 0.10 | 90 | 1006.5 |
| 20260507051339 | 11 | 243 | 4.8 | 16.1 | 0.00 | 0.23 | 0.10 | 91 | 1006.5 |
| 20260507050834 | 11 | 262 | 4.8 | 16.1 | 0.00 | 0.23 | 0.10 | 91 | 1006.5 |
| 20260507050554 | 11 | 271 | 4.8 | 12.9 | 0.00 | 0.23 | 0.10 | 91 | 1006.5 |
| 20260507045834 | 11 | 271 | 4.8 | 12.9 | 0.00 | 0.23 | 0.10 | 91 | 1006.4 |
| 20260507045334 | 11 | 247 | 6.4 | 12.9 | 0.00 | 0.23 | 0.10 | 91 | 1006.3 |
| 20260507044833 | 11 | 295 | 4.8 | 12.9 | 0.00 | 0.23 | 0.10 | 91 | 1006.2 |
| 20260507044332 | 11 | 248 | 3.2 | 12.9 | 0.00 | 0.23 | 0.10 | 91 | 1006.2 |
| 20260507043832 | 11 | 282 | 3.2 | 9.7 | 0.00 | 0.23 | 0.10 | 91 | 1006.2 |
| 20260507043329 | 11 | 274 | 3.2 | 9.7 | 0.00 | 0.23 | 0.10 | 91 | 1006.2 |
| 20260507042830 | 11 | 281 | 1.6 | 6.4 | 0.03 | 0.23 | 0.10 | 91 | 1006.1 |
| 20260507042331 | 11 | 278 | 3.2 | 9.7 | 0.03 | 0.23 | 0.10 | 91 | 1006.1 |
| 20260507042050 | 11 | 271 | 3.2 | 9.7 | 0.03 | 0.23 | 0.10 | 91 | 1006.0 |
| 20260507041330 | 11 | 296 | 3.2 | 9.7 | 0.03 | 0.23 | 0.10 | 91 | 1006.0 |
| 20260507040829 | 11 | 298 | 3.2 | 9.7 | 0.03 | 0.23 | 0.10 | 91 | 1006.0 |
| 20260507040330 | 11 | 248 | 3.2 | 9.7 | 0.03 | 0.23 | 0.10 | 91 | 1006.0 |
| 20260507040114 | 11 | 268 | 4.8 | 11.3 | 0.03 | 0.23 | 0.10 | 91 | 1005.9 |
| 20260507035330 | 11 | 265 | 4.8 | 12.9 | 0.03 | 0.23 | 0.10 | 91 | 1005.9 |
| 20260507034828 | 11 | 271 | 6.4 | 12.9 | 0.03 | 0.23 | 0.10 | 91 | 1005.8 |
| 20260507034328 | 11 | 251 | 8.0 | 19.3 | 0.03 | 0.23 | 0.10 | 92 | 1005.8 |
| 20260507033821 | 11 | 280 | 9.7 | 19.3 | 0.03 | 0.23 | 0.10 | 92 | 1005.8 |
| 20260507033315 | 11 | 276 | 8.0 | 16.1 | 0.03 | 0.23 | 0.10 | 92 | 1005.8 |
| 20260507032810 | 11 | 285 | 6.4 | 14.5 | 0.00 | 0.23 | 0.08 | 92 | 1005.8 |
| 20260507032306 | 11 | 274 | 6.4 | 14.5 | 0.00 | 0.23 | 0.08 | 92 | 1005.8 |
| 20260507031802 | 11 | 265 | 4.8 | 12.9 | 0.00 | 0.23 | 0.08 | 92 | 1005.8 |
| 20260507031302 | 11 | 180 | 4.8 | 12.9 | 0.00 | 0.23 | 0.08 | 92 | 1005.8 |
| 20260507030802 | 11 | 296 | 3.2 | 11.3 | 0.00 | 0.23 | 0.08 | 92 | 1005.8 |
| 20260507030307 | 11 | 251 | 1.6 | 11.3 | 0.00 | 0.23 | 0.08 | 92 | 1005.8 |
| 20260507025801 | 11 | 294 | 1.6 | 6.4 | 0.00 | 0.23 | 0.08 | 92 | 1005.7 |
| 20260507025525 | 11 | 275 | 3.2 | 11.3 | 0.00 | 0.23 | 0.08 | 92 | 1005.7 |
| 20260507024802 | 11 | 290 | 3.2 | 12.9 | 0.00 | 0.23 | 0.08 | 92 | 1005.7 |
| 20260507023800 | 11 | 276 | 4.8 | 11.3 | 0.00 | 0.23 | 0.08 | 92 | 1005.6 |
| 20260507023025 | 11 | 277 | 4.8 | 12.9 | 0.00 | 0.23 | 0.08 | 92 | 1005.6 |
| 20260507022306 | 11 | 271 | 1.6 | 6.4 | 0.00 | 0.23 | 0.08 | 91 | 1005.6 |
| 20260507021301 | 11 | 265 | 1.6 | 9.7 | 0.00 | 0.23 | 0.08 | 91 | 1005.5 |
| 20260507021025 | 11 | 266 | 1.6 | 9.7 | 0.00 | 0.23 | 0.08 | 91 | 1005.5 |
| 20260507020301 | 11 | 219 | 1.6 | 4.8 | 0.00 | 0.23 | 0.08 | 91 | 1005.5 |
| 20260507015801 | 11 | 274 | 0.0 | 3.2 | 0.00 | 0.23 | 0.08 | 91 | 1005.5 |
| 20260507015257 | 11 | 259 | 0.0 | 4.8 | 0.00 | 0.23 | 0.08 | 91 | 1005.4 |
| 20260507014752 | 11 | 259 | 0.0 | 4.8 | 0.00 | 0.23 | 0.08 | 91 | 1005.3 |
| 20260507014246 | 11 | 259 | 0.0 | 3.2 | 0.00 | 0.23 | 0.08 | 91 | 1005.3 |
| 20260507013742 | 11 | 259 | 0.0 | 3.2 | 0.00 | 0.23 | 0.08 | 91 | 1005.3 |
| 20260507013243 | 11 | 259 | 0.0 | 3.2 | 0.00 | 0.23 | 0.08 | 90 | 1005.3 |
| 20260507012742 | 11 | 260 | 0.0 | 1.6 | 0.00 | 0.23 | 0.08 | 90 | 1005.2 |
| 20260507012242 | 11 | 260 | 0.0 | 3.2 | 0.00 | 0.23 | 0.08 | 91 | 1005.3 |
| 20260507011742 | 11 | 259 | 3.2 | 9.7 | 0.00 | 0.23 | 0.08 | 91 | 1005.2 |
| 20260507011243 | 11 | 259 | 4.8 | 11.3 | 0.00 | 0.23 | 0.08 | 91 | 1005.2 |
| 20260507010742 | 11 | 263 | 6.4 | 12.9 | 0.00 | 0.23 | 0.08 | 91 | 1005.2 |
| 20260507010242 | 11 | 272 | 6.4 | 12.9 | 0.00 | 0.23 | 0.08 | 91 | 1005.2 |
| 20260507010010 | 11 | 258 | 8.0 | 12.9 | 0.00 | 0.23 | 0.08 | 91 | 1005.2 |
| 20260507005242 | 11 | 240 | 8.0 | 14.5 | 0.00 | 0.23 | 0.08 | 91 | 1005.2 |
| 20260507004741 | 11 | 261 | 6.4 | 14.5 | 0.00 | 0.23 | 0.08 | 91 | 1005.1 |
| 20260507004240 | 11 | 263 | 8.0 | 16.1 | 0.00 | 0.23 | 0.08 | 91 | 1005.0 |
| 20260507003740 | 11 | 254 | 8.0 | 16.1 | 0.00 | 0.23 | 0.08 | 91 | 1005.0 |
| 20260507003251 | 11 | 271 | 6.4 | 16.1 | 0.00 | 0.23 | 0.08 | 92 | 1004.9 |
| 20260507002740 | 12 | 259 | 6.4 | 12.9 | 0.00 | 0.23 | 0.08 | 91 | 1004.9 |
| 20260507002240 | 12 | 247 | 6.4 | 12.9 | 0.00 | 0.23 | 0.08 | 91 | 1004.8 |
| 20260507002002 | 12 | 249 | 4.8 | 11.3 | 0.00 | 0.23 | 0.08 | 91 | 1004.8 |
| 20260507001235 | 12 | 268 | 3.2 | 9.7 | 0.00 | 0.23 | 0.08 | 91 | 1004.7 |
| 20260507000735 | 12 | 257 | 3.2 | 11.3 | 0.00 | 0.23 | 0.08 | 91 | 1004.6 |
| 20260507000241 | 12 | 253 | 4.8 | 11.3 | 0.00 | 0.23 | 0.08 | 91 | 1004.7 |
| 20260506235731 | 12 | 295 | 4.8 | 11.3 | 0.00 | 0.23 | 0.08 | 91 | 1004.7 |
| 20260506235458 | 12 | 247 | 3.2 | 11.3 | 0.00 | 0.23 | 0.08 | 91 | 1004.7 |
| 20260506234731 | 12 | 263 | 4.8 | 12.9 | 0.00 | 0.23 | 0.08 | 91 | 1004.6 |
| 20260506234230 | 12 | 248 | 4.8 | 12.9 | 0.00 | 0.23 | 0.08 | 91 | 1004.7 |
| 20260506233953 | 12 | 259 | 3.2 | 9.7 | 0.00 | 0.23 | 0.08 | 91 | 1004.7 |
| 20260506233231 | 12 | 260 | 3.2 | 11.3 | 0.03 | 0.23 | 0.08 | 91 | 1004.7 |
| 20260506232729 | 12 | 247 | 3.2 | 11.3 | 0.03 | 0.23 | 0.08 | 91 | 1004.7 |
| 20260506232230 | 12 | 260 | 3.2 | 9.7 | 0.03 | 0.23 | 0.08 | 91 | 1004.7 |
| 20260506231730 | 12 | 238 | 1.6 | 9.7 | 0.05 | 0.23 | 0.08 | 91 | 1004.6 |
| 20260506231230 | 12 | 265 | 0.0 | 1.6 | 0.05 | 0.23 | 0.08 | 91 | 1004.6 |
| 20260506230729 | 12 | 266 | 1.6 | 6.4 | 0.05 | 0.23 | 0.08 | 91 | 1004.6 |
| 20260506230446 | 12 | 265 | 3.2 | 11.3 | 0.08 | 0.23 | 0.08 | 91 | 1004.7 |
| 20260506225949 | 12 | 266 | 4.8 | 12.9 | 0.10 | 0.23 | 0.08 | 91 | 1004.6 |
| 20260506225449 | 12 | 249 | 3.2 | 12.9 | 0.10 | 0.23 | 0.08 | 92 | 1004.6 |
| 20260506224729 | 12 | 264 | 0.0 | 3.2 | 0.10 | 0.23 | 0.08 | 92 | 1004.6 |
| 20260506224230 | 12 | 263 | 0.0 | 3.2 | 0.10 | 0.23 | 0.08 | 92 | 1004.6 |
| 20260506223729 | 12 | 263 | 0.0 | 3.2 | 0.13 | 0.23 | 0.08 | 92 | 1004.6 |
| 20260506223230 | 12 | 263 | 0.0 | 3.2 | 0.10 | 0.20 | 0.05 | 92 | 1004.5 |
| 20260506222729 | 12 | 263 | 1.6 | 11.3 | 0.13 | 0.20 | 0.05 | 92 | 1004.4 |
| 20260506222229 | 12 | 263 | 3.2 | 11.3 | 0.13 | 0.20 | 0.05 | 92 | 1004.4 |
| 20260506221957 | 12 | 263 | 1.6 | 6.4 | 0.10 | 0.18 | 0.05 | 92 | 1004.4 |
| 20260506221229 | 12 | 262 | 3.2 | 8.0 | 0.10 | 0.18 | 0.03 | 92 | 1004.4 |
| 20260506220953 | 12 | 261 | 3.2 | 12.9 | 0.08 | 0.15 | 0.03 | 92 | 1004.4 |
| 20260506220229 | 12 | 238 | 4.8 | 14.5 | 0.05 | 0.15 | 0.00 | 92 | 1004.4 |
| 20260506215729 | 12 | 259 | 8.0 | 14.5 | 0.05 | 0.13 | 0.13 | 92 | 1004.6 |
| 20260506215229 | 12 | 250 | 6.4 | 16.1 | 0.05 | 0.13 | 0.13 | 92 | 1004.6 |
| 20260506214729 | 13 | 240 | 3.2 | 16.1 | 0.05 | 0.13 | 0.13 | 93 | 1004.6 |
| 20260506214229 | 13 | 254 | 3.2 | 16.1 | 0.05 | 0.15 | 0.13 | 93 | 1004.6 |
| 20260506213727 | 13 | 256 | 3.2 | 16.1 | 0.03 | 0.15 | 0.10 | 93 | 1004.6 |
| 20260506213227 | 13 | 281 | 1.6 | 6.4 | 0.03 | 0.18 | 0.10 | 93 | 1004.5 |
| 20260506212724 | 13 | 269 | 1.6 | 11.3 | 0.00 | 0.18 | 0.08 | 93 | 1004.5 |
| 20260506212225 | 13 | 273 | 1.6 | 11.3 | 0.00 | 0.23 | 0.08 | 93 | 1004.6 |
| 20260506211725 | 13 | 250 | 0.0 | 4.8 | 0.00 | 0.23 | 0.08 | 93 | 1004.5 |
| 20260506211225 | 13 | 246 | 0.0 | 0.0 | 0.00 | 0.30 | 0.08 | 93 | 1004.2 |
| 20260506210725 | 13 | 245 | 0.0 | 0.0 | 0.00 | 0.33 | 0.08 | 93 | 1004.1 |
| 20260506210444 | 13 | 246 | 0.0 | 1.6 | 0.00 | 0.36 | 0.08 | 93 | 1003.9 |
| 20260506205721 | 13 | 246 | 0.0 | 3.2 | 0.00 | 0.41 | 0.08 | 92 | 1003.9 |
| 20260506205437 | 13 | 246 | 1.6 | 3.2 | 0.00 | 0.43 | 0.08 | 92 | 1003.9 |
| 20260506204721 | 13 | 246 | 0.0 | 3.2 | 0.00 | 0.51 | 0.08 | 92 | 1003.8 |
| 20260506204220 | 13 | 246 | 0.0 | 3.2 | 0.00 | 0.56 | 0.08 | 92 | 1003.9 |
| 20260506203941 | 13 | 245 | 0.0 | 1.6 | 0.00 | 0.61 | 0.08 | 92 | 1003.9 |
| 20260506203441 | 13 | 245 | 0.0 | 4.8 | 0.00 | 0.66 | 0.08 | 92 | 1003.8 |
| 20260506202721 | 13 | 246 | 0.0 | 4.8 | 0.00 | 0.71 | 0.08 | 92 | 1003.9 |
| 20260506202220 | 13 | 255 | 0.0 | 3.2 | 0.00 | 0.76 | 0.08 | 92 | 1003.8 |
| 20260506201721 | 13 | 257 | 0.0 | 0.0 | 0.00 | 0.79 | 0.08 | 92 | 1003.7 |
| 20260506201437 | 13 | 258 | 0.0 | 0.0 | 0.00 | 0.79 | 0.08 | 92 | 1003.5 |
| 20260506200716 | 13 | 257 | 0.0 | 0.0 | 0.00 | 0.79 | 0.08 | 92 | 1003.3 |
| 20260506200444 | 13 | 257 | 0.0 | 0.0 | 0.00 | 0.79 | 0.08 | 92 | 1003.3 |
| 20260506195715 | 13 | 257 | 0.0 | 1.6 | 0.00 | 0.79 | 0.08 | 91 | 1003.3 |
| 20260506194715 | 13 | 257 | 1.6 | 6.4 | 0.00 | 0.79 | 0.08 | 91 | 1003.5 |
| 20260506194432 | 13 | 259 | 1.6 | 6.4 | 0.00 | 0.79 | 0.08 | 91 | 1003.5 |
| 20260506193713 | 13 | 292 | 0.0 | 3.2 | 0.00 | 0.79 | 0.08 | 91 | 1003.5 |
| 20260506193434 | 13 | 292 | 0.0 | 4.8 | 0.00 | 0.79 | 0.08 | 90 | 1003.4 |
| 20260506192710 | 13 | 292 | 1.6 | 6.4 | 0.00 | 0.79 | 0.08 | 90 | 1003.4 |
| 20260506192208 | 13 | 292 | 1.6 | 6.4 | 0.00 | 0.79 | 0.08 | 90 | 1003.5 |
| 20260506191707 | 13 | 13 | 0.0 | 3.2 | 0.03 | 0.79 | 0.08 | 89 | 1003.3 |
| 20260506191207 | 13 | 13 | 1.6 | 4.8 | 0.03 | 0.79 | 0.08 | 89 | 1003.2 |
| 20260506190705 | 14 | 13 | 1.6 | 4.8 | 0.05 | 0.79 | 0.08 | 88 | 1003.1 |
| 20260506190203 | 14 | 13 | 0.0 | 3.2 | 0.05 | 0.79 | 0.08 | 87 | 1003.0 |
| 20260506185703 | 14 | 13 | 1.6 | 6.4 | 0.05 | 0.79 | 0.08 | 87 | 1003.0 |
| 20260506185203 | 14 | 13 | 3.2 | 6.4 | 0.05 | 0.79 | 0.08 | 86 | 1003.0 |
| 20260506184702 | 14 | 13 | 1.6 | 6.4 | 0.05 | 0.79 | 0.08 | 85 | 1002.9 |
| 20260506184204 | 15 | 13 | 0.0 | 4.8 | 0.05 | 0.79 | 0.08 | 85 | 1002.8 |
| 20260506183924 | 15 | 13 | 1.6 | 8.0 | 0.05 | 0.79 | 0.08 | 85 | 1002.6 |
| 20260506183203 | 15 | 13 | 3.2 | 8.0 | 0.05 | 0.79 | 0.08 | 84 | 1002.5 |
| 20260506182933 | 15 | 161 | 1.6 | 8.0 | 0.05 | 0.79 | 0.08 | 84 | 1002.5 |
| 20260506182203 | 15 | 167 | 1.6 | 8.0 | 0.05 | 0.79 | 0.08 | 83 | 1002.8 |
| 20260506181703 | 15 | 167 | 3.2 | 8.0 | 0.05 | 0.79 | 0.05 | 83 | 1003.0 |
| 20260506181426 | 16 | 167 | 3.2 | 6.4 | 0.05 | 0.79 | 0.05 | 82 | 1002.9 |
| 20260506180704 | 16 | 111 | 1.6 | 4.8 | 0.00 | 0.74 | 0.03 | 79 | 1002.8 |
| 20260506180203 | 16 | 113 | 0.0 | 4.8 | 0.00 | 0.74 | 0.03 | 79 | 1002.9 |
| 20260506175710 | 16 | 108 | 0.0 | 0.0 | 0.00 | 0.74 | 0.03 | 79 | 1002.8 |
| 20260506175203 | 16 | 108 | 0.0 | 0.0 | 0.00 | 0.74 | 0.03 | 78 | 1002.5 |
| 20260506174704 | 16 | 108 | 0.0 | 0.0 | 0.00 | 0.74 | 0.03 | 79 | 1002.4 |
| 20260506174203 | 16 | 108 | 0.0 | 3.2 | 0.00 | 0.74 | 0.03 | 78 | 1002.4 |
| 20260506173704 | 16 | 108 | 1.6 | 4.8 | 0.00 | 0.74 | 0.03 | 78 | 1002.4 |
| 20260506173426 | 17 | 108 | 3.2 | 4.8 | 0.00 | 0.74 | 0.03 | 79 | 1002.3 |
| 20260506172701 | 17 | 108 | 3.2 | 6.4 | 0.00 | 0.74 | 0.03 | 77 | 1002.3 |
| 20260506172434 | 17 | 108 | 1.6 | 6.4 | 0.00 | 0.74 | 0.03 | 75 | 1002.2 |
| 20260506171701 | 17 | 107 | 0.0 | 3.2 | 0.00 | 0.74 | 0.03 | 71 | 1002.1 |
| 20260506171201 | 17 | 107 | 0.0 | 3.2 | 0.00 | 0.74 | 0.03 | 70 | 1002.1 |
| 20260506170701 | 17 | 107 | 1.6 | 4.8 | 0.00 | 0.74 | 0.03 | 71 | 1002.0 |
| 20260506170201 | 18 | 109 | 1.6 | 4.8 | 0.00 | 0.74 | 0.03 | 72 | 1001.9 |
| 20260506165701 | 18 | 108 | 0.0 | 3.2 | 0.00 | 0.74 | 0.03 | 73 | 1002.0 |
| 20260506165202 | 18 | 109 | 0.0 | 0.0 | 0.00 | 0.74 | 0.03 | 71 | 1002.3 |
| 20260506164701 | 18 | 109 | 0.0 | 0.0 | 0.00 | 0.74 | 0.03 | 71 | 1002.4 |
| 20260506164424 | 18 | 109 | 0.0 | 1.6 | 0.00 | 0.74 | 0.03 | 70 | 1002.3 |
| 20260506163702 | 18 | 109 | 0.0 | 4.8 | 0.00 | 0.74 | 0.03 | 69 | 1002.2 |
| 20260506163201 | 18 | 109 | 1.6 | 4.8 | 0.00 | 0.74 | 0.03 | 69 | 1002.3 |